SCP
0 0 0 -0 -0 0 0 0 0 0 0 0 0 0 0 0 0 0 0 0 0 0 0 0 0 0 0 0 0 0 0 1 1 1 0 0 0 0 0 0 0 0 0 0 0 0 0 0 0
0 0 -0 -0 -0 0 0 0 0 0 0 0 0 0 0 0 0 0 0 0 0 0 0 0 0 0 0 0 0 0 0 1 1 1 0 0 0 0 0 0 0 0 0 0 0 0 0 0 0
0 0 -0 -0 -0 0 0 0 0 0 0 0 0 0 0 0 0 0 0 0 0 0 0 0 0 0 0 0 0 0 0 0 0 0 0 0 0 0 0 0 0 0 0 0 0 0 0 0 0
0 -0 -0 -0 -0 0 0 0 0 0 0 0 0 0 0 0 0 0 0 0 0 0 0 0 0 0 0 0 0 1 1 1 0 0 0 0 0 0 0 0 0 0 0 0 0 0 0 0 0
0 -0 -0 -0 0 0 0 0 0 0 0 0 0 0 0 0 0 0 0 0 0 0 0 0 0 0 0 0 1 1 1 1 1 0 0 0 0 0 0 0 0 0 0 0 0 0 0 0 0
-0 -0 -0 0 0 0 0 0 0 0 0 0 0 0 0 0 0 0 0 0 0 0 0 0 0 0 0 0 1 1 1 1 1 1 1 0 0 0 0 0 0 0 0 0 0 0 0 0 0
-0 -0 -0 0 0 0 0 0 0 0 0 0 0 0 0 1 1 0 0 0 0 0 0 0 0 0 0 0 1 1 1 1 1 1 1 0 0 0 0 0 0 0 0 0 0 0 0 0 0
-0 0 -0 0 0 0 0 0 0 0 0 0 0 0 0 1 1 1 1 0 0 0 0 0 0 0 0 0 0 1 1 1 1 1 0 0 0 0 0 0 0 0 0 0 0 0 0 0 0
0 0 0 0 0 0 0 0 0 0 0 0 0 0 1 1 1 1 1 1 0 0 0 0 0 0 0 0 0 0 0 0 0 0 0 0 0 0 0 0 0 0 0 0 0 0 0 0 0
0 0 0 0 0 0 0 0 0 0 0 0 0 1 1 1 1 1 1 1 1 0 0 0 0 0 0 0 0 0 0 0 0 0 0 0 0 0 0 0 0 0 0 0 0 0 0 0 0
0 0 0 0 0 0 0 0 0 0 0 0 0 1 1 1 1 1 1 1 1 1 0 0 0 0 0 0 0 0 0 0 0 0 0 0 0 0 0 0 0 0 0 0 0 0 0 0 0
0 0 0 0 0 0 0 0 0 0 0 0 0 1 1 1 1 1 1 1 1 1 0 0 0 0 0 1 1 1 0 0 0 0 0 0 0 0 0 0 0 0 0 0 0 0 0 0 0
0 0 0 0 0 0 0 0 0 0 0 0 1 1 1 1 1 1 1 1 1 1 1 0 0 1 1 1 1 1 1 0 0 0 0 0 1 1 1 1 1 0 0 0 0 0 0 0 0
0 0 0 0 0 0 0 0 0 0 0 1 1 1 1 1 1 1 1 1 1 1 1 1 1 1 1 1 1 1 1 1 1 1 1 0 1 1 1 1 0 0 0 0 0 0 0 0 0
0 0 0 0 0 0 0 0 0 0 0 1 1 1 1 1 1 1 1 1 1 1 1 1 1 1 1 1 1 1 1 1 1 1 1 1 1 1 1 0 0 0 0 0 0 0 0 0 0
0 0 0 0 0 0 0 0 0 0 0 1 1 1 1 1 1 1 1 1 1 1 1 1 1 1 1 1 1 1 1 1 1 1 1 1 0 0 0 0 0 0 0 0 0 0 0 0 0
0 0 0 0 0 0 0 0 0 0 0 0 0 1 1 1 1 1 1 1 1 1 1 1 1 1 1 1 1 1 1 1 1 1 1 0 0 0 0 0 0 0 0 0 0 0 0 0 0
0 0 0 0 0 0 0 0 0 0 0 0 0 0 0 1 1 1 1 1 1 1 1 1 1 1 1 1 1 1 1 0 0 0 0 0 0 0 0 0 0 0 0 0 0 0 0 0 0
0 0 0 0 0 0 0 0 0 0 0 0 0 0 0 0 1 1 1 1 1 1 1 1 1 1 1 1 1 1 0 0 0 0 0 0 0 0 0 0 0 0 0 0 0 0 0 0 0
0 0 0 0 0 0 0 0 0 0 0 0 0 0 1 1 1 1 1 1 1 1 1 1 1 1 1 1 1 1 0 0 0 0 0 0 0 0 0 0 0 0 0 0 0 0 0 0 0
0 0 0 0 0 0 0 0 0 0 0 0 0 0 1 1 1 1 1 1 1 1 1 1 1 1 1 1 1 0 0 0 0 0 0 0 0 0 0 0 0 0 0 0 0 0 0 0 0
0 0 0 0 0 0 0 0 0 0 0 0 0 0 1 1 1 1 1 1 1 1 1 1 1 1 1 1 0 0 0 0 0 0 0 0 0 0 0 0 0 0 0 0 0 0 0 0 0
0 0 0 0 0 0 0 0 0 0 0 0 0 1 1 1 0 1 1 1 1 1 1 1 1 1 1 1 1 0 0 0 0 0 0 0 0 0 0 0 0 0 0 0 0 0 0 0 0
0 0 0 0 0 0 0 0 0 0 0 0 0 1 1 0 0 1 1 1 1 1 1 1 1 1 0 0 0 0 0 0 0 0 0 0 0 0 0 0 0 0 0 0 0 0 0 0 0
0 0 0 0 0 0 0 0 0 0 0 0 0 1 1 0 0 0 1 1 1 1 1 1 0 0 0 0 0 0 0 0 0 0 0 0 0 0 0 0 0 0 0 0 0 0 0 0 0
0 0 0 0 0 0 0 0 0 0 0 0 0 0 0 0 0 0 1 1 1 1 1 0 0 0 0 0 0 0 0 0 0 0 0 0 0 0 0 0 0 0 0 0 0 0 0 0 0
0 0 0 0 0 0 0 0 0 0 0 0 0 0 0 0 0 0 0 1 1 1 0 0 0 0 0 0 0 0 0 0 0 0 0 0 0 0 0 0 0 0 0 0 0 0 0 0 0
0 0 0 0 0 0 0 0 0 0 0 0 0 0 0 0 0 0 0 1 1 1 0 0 0 0 0 0 0 0 0 0 0 0 0 0 0 0 0 0 0 0 0 0 0 0 0 0 0
0 0 0 0 0 0 0 0 0 0 0 0 0 0 0 0 0 0 0 0 0 0 0 0 0 0 0 0 0 0 0 0 0 0 0 0 0 0 0 0 0 0 0 0 0 0 0 0 0
0 0 0 0 0 0 0 0 0 0 0 0 0 0 0 0 0 0 0 0 0 0 0 0 0 0 0 0 0 0 0 0 0 0 0 0 0 0 0 0 0 0 0 0 0 0 0 0 0
Wind_Speed
8 7 6 6 8 6 3 4 3 4 4 4 4 2 3 4 4 6 7 11 13 14 16 15 12 12 12 13 13 14 14 14 13 13 12 11 11 10 9 8 8 7 7 6 6 6 6 6 5
5 5 7 7 8 6 5 4 4 4 6 6 5 3 3 6 7 8 9 12 14 14 14 14 14 12 12 13 13 13 14 14 13 12 12 11 10 9 8 8 7 7 6 6 6 5 5 5 5
6 7 7 6 7 5 5 5 5 6 6 4 4 3 4 5 6 7 10 14 14 13 13 14 14 13 12 12 12 12 13 13 12 12 11 10 9 8 7 7 7 6 6 5 5 5 4 4 4
6 7 7 8 7 2 1 4 5 6 6 4 5 6 6 5 4 9 13 14 14 13 13 15 13 13 12 12 11 11 12 11 11 10 10 9 8 7 7 6 6 6 5 5 5 4 4 3 3
7 7 8 8 6 3 2 2 4 5 5 5 4 6 7 5 8 12 14 13 13 13 12 15 12 12 12 12 11 11 10 10 9 9 8 8 7 6 6 6 5 5 5 5 4 4 4 4 3
7 7 8 9 7 5 3 3 5 5 6 6 6 6 7 7 10 12 13 12 12 12 12 14 13 12 12 11 10 10 10 9 8 8 7 7 6 6 5 5 5 4 4 4 3 3 4 4 3
8 8 9 7 7 7 4 3 5 6 6 6 5 6 8 9 10 12 12 11 11 11 11 12 12 12 11 10 10 9 9 8 8 7 6 6 5 5 5 4 4 3 3 3 3 3 3 3 4
6 6 8 7 8 6 6 4 3 4 5 5 3 5 8 11 11 12 11 11 10 9 9 10 10 10 10 10 10 9 8 8 7 7 6 5 5 5 4 4 3 2 2 2 2 2 3 4 4
7 8 8 7 7 6 7 6 4 3 5 4 2 4 9 16 14 12 12 10 10 9 7 8 8 8 8 8 9 9 8 7 6 7 6 5 5 5 5 2 3 2 2 3 3 3 4 6 7
8 8 5 2 2 5 6 5 5 6 7 6 7 9 14 15 14 13 12 12 11 10 9 7 7 7 7 6 6 5 5 6 5 4 5 4 2 1 1 6 2 2 3 4 3 4 6 8 5
7 4 4 3 2 3 5 5 5 6 7 7 10 13 15 14 13 12 11 11 11 10 8 7 7 6 6 4 4 3 3 3 3 3 3 2 2 2 2 2 3 4 5 4 3 5 5 4 3
4 2 1 2 3 3 4 4 4 4 1 4 8 12 14 14 13 11 10 10 9 9 8 7 6 6 5 4 3 3 3 2 2 3 2 2 1 1 1 1 2 2 2 2 3 3 3 4 4
6 3 2 2 3 3 4 4 2 3 4 6 9 12 14 13 12 10 8 8 8 8 8 7 6 6 5 4 3 3 2 2 2 1 1 1 1 1 1 1 2 2 2 3 3 3 4 5 5
4 4 3 3 4 5 6 5 4 4 6 8 10 11 12 11 11 10 9 9 8 7 7 6 6 5 5 4 3 2 2 2 1 1 1 1 1 1 1 1 2 2 3 3 3 3 4 4 4
6 6 6 4 4 5 6 6 5 6 7 9 9 10 10 9 9 9 8 8 8 7 7 6 5 5 5 4 3 2 2 2 1 1 1 1 1 1 2 1 1 2 2 2 3 4 4 4 4
8 9 8 6 5 5 8 6 7 7 8 8 8 9 9 8 8 8 8 8 7 7 7 6 5 6 5 4 3 2 2 2 1 1 2 2 2 2 2 2 2 2 2 2 2 3 4 4 4
10 9 7 7 5 5 8 4 6 7 8 8 8 9 9 9 8 7 8 8 7 7 7 7 6 6 5 5 3 3 3 2 2 2 2 2 3 2 2 2 2 2 2 2 3 2 4 4 4
7 7 7 6 6 6 7 4 6 7 8 8 8 9 9 9 8 8 7 7 7 7 7 7 6 6 5 4 3 3 3 2 2 2 3 2 2 3 2 1 2 3 2 2 3 3 3 3 3
4 5 5 3 3 6 7 6 6 7 8 8 8 9 9 8 8 8 7 7 7 7 6 6 6 6 5 3 3 2 2 2 2 3 3 2 2 3 3 3 2 3 2 3 4 3 3 2 3
6 7 5 4 4 5 5 6 6 7 9 9 9 9 9 8 8 9 8 8 8 7 7 6 6 6 5 4 2 2 2 2 2 2 2 2 2 2 2 3 2 2 2 2 3 3 4 3 2
7 7 5 4 4 6 6 8 8 8 8 8 9 9 9 9 10 9 9 9 8 8 7 5 5 5 5 4 3 3 2 2 2 2 2 2 2 2 3 3 3 3 3 2 3 3 4 4 2
6 3 4 6 8 6 7 8 7 9 9 9 9 9 9 10 10 9 10 9 8 7 7 6 6 5 5 4 4 4 2 2 1 1 2 1 1 2 2 2 3 3 3 3 3 3 4 4 3
2 1 5 6 8 8 8 9 5 7 9 9 9 8 9 9 9 9 9 9 8 7 7 6 6 5 4 4 4 4 3 2 2 1 2 1 1 2 2 2 3 3 3 3 4 4 4 4 4
4 5 5 7 8 11 9 10 7 5 7 6 7 7 7 8 8 8 8 8 7 7 7 6 6 5 4 4 4 3 3 2 2 1 1 0 1 1 3 3 3 3 3 3 3 4 4 4 4
8 7 6 8 8 8 5 8 6 2 3 4 5 6 7 8 9 9 9 9 8 8 7 6 6 5 5 4 4 3 2 2 2 1 1 1 1 1 3 3 3 3 3 3 3 3 4 4 4
10 10 9 8 7 5 5 8 2 3 2 3 4 6 8 8 8 9 9 9 8 8 7 7 6 5 5 4 3 2 2 1 1 1 1 1 2 2 2 2 3 3 3 3 3 3 3 3 3
8 10 9 10 11 9 6 5 3 4 5 5 6 7 8 8 8 8 9 9 9 8 7 7 7 6 5 4 4 3 2 2 3 1 1 1 2 1 2 2 3 3 3 4 4 3 3 3 4
9 7 6 9 9 9 8 8 4 5 6 6 7 8 8 8 8 8 8 8 8 8 7 7 6 6 5 4 3 2 3 3 2 1 2 3 2 2 2 2 3 3 4 4 4 4 3 4 3
8 9 9 9 8 9 8 3 4 2 3 5 5 6 8 9 8 8 8 8 8 8 8 7 6 5 4 3 3 2 2 2 2 1 1 2 2 3 3 3 3 4 4 4 4 4 4 4 4
8 9 9 9 8 9 9 2 5 3 4 4 6 6 7 8 8 8 8 8 8 8 7 7 6 5 5 4 3 3 3 2 1 1 1 1 2 2 3 3 3 4 4 4 4 5 4 4 4
Wind_Direction
231 228 231 234 235 225 185 118 105 119 109 89 105 90 68 39 19 68 109 140 136 138 137 145 144 142 139 135 133 133 133 132 133 134 134 134 135 135 135 135 135 134 133 131 129 130 129 127 126
237 218 228 237 246 214 159 126 121 89 99 118 118 110 96 79 61 98 128 135 139 137 142 144 142 143 140 137 135 134 135 134 135 136 136 137 137 138 140 141 140 138 139 140 138 137 135 134 135
222 232 245 235 238 237 141 120 109 106 123 145 127 92 64 75 99 116 126 139 138 138 141 135 146 144 141 139 137 137 137 137 137 138 139 140 141 142 144 146 145 143 145 146 145 147 147 147 149
217 214 231 238 214 205 106 123 131 140 141 147 140 112 87 63 97 120 134 142 140 142 143 137 148 144 141 140 139 139 139 138 139 140 142 143 145 148 150 151 150 150 154 156 155 156 159 165 170
233 230 217 214 203 153 132 139 175 173 153 147 151 116 98 80 103 125 138 142 143 143 141 138 142 142 142 142 140 138 137 137 139 142 147 147 146 148 151 153 155 158 161 162 164 168 173 180 183
216 226 220 204 178 157 151 170 186 177 147 144 146 126 100 111 122 131 137 141 141 140 140 136 141 142 143 142 142 141 139 139 140 142 143 141 143 147 148 146 151 158 165 175 183 189 192 200 209
235 225 225 204 168 163 145 166 186 167 154 143 146 127 119 129 129 135 137 138 138 139 141 144 149 147 145 141 141 140 139 138 135 133 135 138 143 147 146 147 155 163 175 187 199 210 212 215 227
255 236 214 200 183 156 139 158 159 166 128 110 159 150 139 139 140 138 136 137 137 138 142 144 147 148 153 149 143 140 138 138 137 135 141 147 153 158 157 176 161 179 197 207 215 231 244 236 235
242 234 206 190 184 146 147 158 138 138 138 131 107 86 119 138 145 144 141 141 139 140 144 146 147 149 154 148 142 150 148 145 156 158 160 186 192 178 177 140 112 209 228 231 236 236 247 248 226
228 227 189 146 159 144 158 167 154 173 165 152 136 120 129 144 153 155 154 153 152 152 153 151 152 153 156 147 146 163 163 154 177 163 171 194 180 188 217 118 156 238 244 232 231 245 240 243 234
224 230 130 143 137 158 168 168 181 195 183 167 158 149 149 153 160 163 161 159 156 151 151 152 152 154 157 153 153 161 159 152 170 165 179 186 205 200 230 194 187 214 231 243 215 231 247 256 275
205 179 174 134 140 181 175 169 180 206 136 124 151 153 157 162 166 167 163 157 150 150 151 154 157 156 159 154 151 163 163 161 170 158 201 197 209 227 235 255 268 253 262 280 278 273 283 286 286
192 158 143 157 175 180 174 175 171 151 127 139 149 158 164 166 165 161 155 151 151 153 154 155 158 156 158 158 169 159 158 158 150 149 167 248 231 245 250 277 297 293 299 282 280 287 295 287 280
150 139 146 164 158 168 170 157 177 151 146 147 155 164 167 167 165 160 160 156 157 153 149 146 155 154 156 156 155 146 147 134 118 100 78 333 330 335 308 280 299 307 307 313 299 297 292 285 292
164 165 166 173 176 168 177 178 181 148 156 157 159 163 164 165 164 166 163 159 158 153 150 151 157 156 157 156 153 140 126 119 107 98 77 33 10 357 315 311 298 322 310 298 289 291 283 277 280
192 198 184 156 180 177 222 192 140 149 168 167 165 165 167 166 169 165 162 157 156 155 153 157 160 155 152 144 141 134 120 119 117 108 91 58 25 355 321 323 336 323 306 304 301 297 299 297 290
200 207 190 160 181 192 226 192 145 169 180 178 175 174 174 169 171 165 162 158 158 158 156 157 155 152 149 143 140 132 123 115 101 80 62 51 30 3 332 340 349 310 315 314 307 329 313 307 308
201 202 197 191 171 212 224 207 168 182 191 191 187 182 178 175 171 165 162 156 156 158 157 151 151 145 144 146 147 142 126 119 98 82 67 52 37 18 338 350 351 316 326 328 331 317 315 312 312
230 224 212 190 168 225 225 222 201 191 198 200 197 190 182 175 167 162 163 161 155 156 155 154 154 149 152 153 163 151 131 118 105 91 77 63 45 31 357 347 353 332 345 338 334 319 307 310 316
225 225 215 178 175 235 231 238 218 205 209 207 203 196 188 177 171 166 170 168 164 160 159 157 158 152 159 153 157 152 125 117 99 89 80 54 44 16 11 357 336 348 326 337 336 328 310 317 321
224 233 228 210 189 217 231 235 217 203 207 209 207 202 193 186 183 177 177 175 169 165 163 156 147 146 150 150 150 140 143 158 139 118 97 63 32 18 2 350 341 333 320 344 325 318 310 306 294
229 221 234 216 226 226 228 254 216 203 201 206 208 204 197 188 185 182 177 174 170 163 157 152 144 143 144 156 158 156 154 138 104 88 77 61 41 18 14 352 344 333 334 332 310 334 303 295 293
257 207 231 237 251 258 233 258 240 196 214 205 203 200 200 190 182 179 178 169 162 154 148 143 139 138 139 150 160 168 153 135 122 102 92 31 53 20 15 360 352 336 331 339 325 316 306 301 301
192 205 222 234 243 248 241 254 254 214 231 216 193 181 186 180 172 169 164 156 153 150 144 140 139 140 146 152 146 150 142 141 138 125 88 37 43 34 27 358 343 324 334 332 319 314 308 312 310
217 231 239 233 231 245 217 246 263 210 215 212 192 172 163 161 161 161 161 158 153 152 148 145 144 142 147 147 143 141 145 169 164 165 90 357 2 29 28 356 334 331 332 327 322 309 315 311 304
228 243 258 271 266 260 213 243 256 112 137 167 165 157 152 155 156 161 164 160 156 154 153 151 150 146 147 143 140 134 140 140 94 62 1 348 352 17 12 342 330 328 323 321 317 302 306 303 296
236 244 277 278 271 270 252 246 202 176 176 171 161 160 159 156 156 158 157 157 157 155 156 156 152 146 143 136 133 135 124 92 78 75 352 15 18 8 5 348 340 336 332 326 311 313 303 297 291
262 273 261 262 269 269 258 250 242 184 179 166 169 169 158 153 153 150 151 155 154 152 151 149 147 147 145 142 134 123 121 113 111 74 45 32 19 9 352 348 345 341 338 331 316 306 308 297 293
222 232 250 266 275 279 278 287 51 132 156 167 163 163 161 156 152 151 152 149 148 151 153 155 155 155 150 141 126 116 116 111 111 79 55 42 19 1 352 351 347 347 348 345 329 319 316 312 311
258 254 247 260 265 266 279 310 80 110 142 155 149 144 144 147 148 150 150 147 148 152 156 158 157 157 151 141 129 119 114 111 99 73 56 41 18 1 3 356 358 354 351 339 330 329 331 324 318